Provo, UT

10:38 AM MST on December 05, 2019 (GMT -0700)
Provo Municipal

Weather History for KPVU - October, 2019

Change the Weather History Date:

Thursday, October 10, 2019

  Actual Average Record
Temperature  
Mean Temperature 36 °F -  
Max Temperature 42 °F 65 °F 86 °F (1996)
Min Temperature 30 °F 37 °F 28 °F (2017)
Degree Days  
Heating Degree Days 29    
Moisture  
Dew Point 17 °F    
Average Humidity 50    
Maximum Humidity 73    
Minimum Humidity 29    
Precipitation  
Precipitation 0.00 in - - ()
Sea Level Pressure  
Sea Level Pressure 30.31 in    
Wind  
Wind Speed 15 mph (NNW)    
Max Wind Speed 23 mph    
Max Gust Speed 29 mph    
Visibility 10 miles    
Events      
Averages and records for this station are not official NWS values.
T = Trace of Precipitation, MM = Missing Value Source: NWS Daily Summary

Daily Weather History Graph

Daily Weather History Graph

Search for Another Location

Airport or City:

Astronomy

Oct. 10, 2019 Rise Set
Actual Time 7:32 AM MDT 6:54 PM MDT
Civil Twilight 7:04 AM MDT 7:22 PM MDT
Nautical Twilight 6:33 AM MDT 7:53 PM MDT
Astronomical Twilight 6:01 AM MDT 8:25 PM MDT
Moon 5:58 PM MDT (10/10) 4:18 AM MDT (10/10)
Length of Visible Light 12h 17m
Length of Day
11h 22m
Waxing Gibbous, 91% of the Moon is Illuminated
Oct 10
Waxing Gibbous
Oct 13
Full
Oct 21
Last Quarter
Oct 27
New
Nov 4
First Quarter

Hourly Weather History & Observations

Time (MDT) Temp. Windchill Dew Point Humidity Pressure Visibility Wind Dir Wind Speed Gust Speed Precip Events Conditions
12:56 AM 36.0 °F 25.3 °F 23.0 °F 59% 30.12 in 10.0 mi NW 19.6 mph 25.3 mph N/A   Clear
1:56 AM 35.1 °F 25.2 °F 21.9 °F 59% 30.14 in 10.0 mi NNW 16.1 mph - N/A   Clear
2:56 AM 36.0 °F 27.1 °F 23.0 °F 59% 30.17 in 10.0 mi North 13.8 mph 21.9 mph N/A   Partly Cloudy
3:56 AM 32.0 °F 22.5 °F 21.0 °F 64% 30.19 in 10.0 mi North 12.7 mph - N/A   Clear
4:56 AM 32.0 °F 23.0 °F 24.1 °F 73% 30.22 in 10.0 mi North 11.5 mph - N/A   Partly Cloudy
5:36 AM 33.8 °F 23.9 °F 24.8 °F 70% 30.21 in 10.0 mi NW 15.0 mph - N/A   Mostly Cloudy
5:56 AM 32.0 °F 24.8 °F 23.0 °F 69% 30.24 in 10.0 mi North 8.1 mph - N/A   Overcast
6:41 AM 30.2 °F 23.4 °F 21.2 °F 69% 30.23 in 10.0 mi North 6.9 mph - N/A   Scattered Clouds
6:56 AM 30.9 °F 21.7 °F 21.9 °F 69% 30.26 in 10.0 mi NNW 11.5 mph - N/A   Scattered Clouds
7:56 AM 33.1 °F 21.2 °F 19.9 °F 59% 30.28 in 10.0 mi NW 20.7 mph - N/A   Scattered Clouds
8:56 AM 34.0 °F 21.8 °F 19.9 °F 56% 30.31 in 10.0 mi NW 23.0 mph 27.6 mph N/A   Scattered Clouds
9:56 AM 36.0 °F 24.4 °F 17.1 °F 46% 30.33 in 10.0 mi NW 23.0 mph 27.6 mph N/A   Scattered Clouds
10:56 AM 37.9 °F 27.9 °F 12.9 °F 36% 30.35 in 10.0 mi NW 19.6 mph - N/A   Clear
11:56 AM 39.0 °F 28.5 °F 12.0 °F 33% 30.36 in 10.0 mi NW 23.0 mph 28.8 mph N/A   Scattered Clouds
12:56 PM 39.9 °F 30.2 °F 12.9 °F 33% 30.36 in 10.0 mi NW 20.7 mph - N/A   Scattered Clouds
1:56 PM 41.0 °F 31.9 °F 10.9 °F 29% 30.35 in 10.0 mi NNW 19.6 mph - N/A   Clear
2:56 PM 41.0 °F 33.1 °F 12.0 °F 31% 30.33 in 10.0 mi NNW 15.0 mph - N/A   Partly Cloudy
3:56 PM 42.1 °F 34.2 °F 12.0 °F 29% 30.34 in 10.0 mi NNW 16.1 mph 21.9 mph N/A   Partly Cloudy
4:56 PM 42.1 °F 34.9 °F 12.9 °F 31% 30.34 in 10.0 mi NNW 13.8 mph - N/A   Clear
5:56 PM 39.9 °F 31.4 °F 14.0 °F 35% 30.36 in 10.0 mi NNW 16.1 mph - N/A   Clear
6:56 PM 37.9 °F 28.9 °F 12.0 °F 35% 30.39 in 10.0 mi NNW 16.1 mph - N/A   Partly Cloudy
7:56 PM 36.0 °F 29.0 °F 15.1 °F 43% 30.41 in 10.0 mi NNW 9.2 mph - N/A   Clear
8:56 PM 36.0 °F 27.1 °F 17.1 °F 46% 30.43 in 10.0 mi NNW 13.8 mph - N/A   Clear
9:56 PM 33.1 °F 24.9 °F 15.1 °F 48% 30.44 in 10.0 mi North 10.4 mph - N/A   Clear
10:56 PM 32.0 °F 27.5 °F 15.1 °F 50% 30.46 in 10.0 mi NW 4.6 mph - N/A   Clear
11:56 PM 30.9 °F - 17.1 °F 57% 30.47 in 10.0 mi Calm Calm - N/A   Clear